Tracking 17925 objects as of 21-January-2017
HD Live streaming from Space Station
objects crossing your sky now

ESSA 1 (OT-3)

Track ESSA 1 (OT-3) now!
10-day predictions
ESSA 1 (OT-3) is classified as:


NORAD ID: 1982
Int'l Code: 1966-008A
Perigee: 686.0 km
Apogee: 800.5 km
Inclination: 97.8 °
Period: 99.5 minutes
Semi major axis: 7114 km
RCS: 0.7257 m2 (medium)
Launch date: February 3, 1966
Source: United States (US)
Launch site: AIR FORCE EASTERN TEST RANGE (AFETR)
Your satellite tracking list
Your tracking list is empty





NASA's NSSDC Master Catalog

Two Line Element Set (TLE):
1 01982U 66008A   17021.18797964 -.00000001  00000-0  11193-4 0  9993
2 01982  97.8375 245.2233 0080434 248.5806 110.6793 14.46806146682018
Source of the keplerian elements: AFSPC